Year,Month,Day,Hour,Minute,Value (Times are PST for temperature in C)
2007,10,26,00,00,1.50
2007,10,26,00,01,1.50
2007,10,26,00,02,1.40
2007,10,26,00,03,1.30
2007,10,26,00,04,1.30
2007,10,26,00,05,1.20
2007,10,26,00,06,1.20
2007,10,26,00,07,1.10
2007,10,26,00,08,1.10
2007,10,26,00,09,1.10
2007,10,26,00,10,1.00
2007,10,26,00,11,1.00
2007,10,26,00,12,1.00
2007,10,26,00,13,0.90
2007,10,26,00,14,0.90
2007,10,26,00,15,0.90
2007,10,26,00,16,0.90
2007,10,26,00,17,0.90
2007,10,26,00,18,0.90
2007,10,26,00,19,0.90
2007,10,26,00,20,0.90
2007,10,26,00,21,1.00
2007,10,26,00,22,1.10
2007,10,26,00,23,1.10
2007,10,26,00,24,1.20
2007,10,26,00,25,1.20
2007,10,26,00,26,1.30
2007,10,26,00,27,1.30
2007,10,26,00,28,1.30
2007,10,26,00,29,1.40
2007,10,26,00,30,1.40
2007,10,26,00,31,1.50
2007,10,26,00,32,1.50
2007,10,26,00,33,1.50
2007,10,26,00,34,1.50
2007,10,26,00,35,1.50
2007,10,26,00,36,1.50
2007,10,26,00,37,1.40
2007,10,26,00,38,1.30
2007,10,26,00,39,1.30
2007,10,26,00,40,1.30
2007,10,26,00,41,1.30
2007,10,26,00,42,1.20
2007,10,26,00,43,1.20
2007,10,26,00,44,1.10
2007,10,26,00,45,1.10
2007,10,26,00,46,1.00
2007,10,26,00,47,0.90
2007,10,26,00,48,0.90
2007,10,26,00,49,0.80
2007,10,26,00,50,0.80
2007,10,26,00,51,0.70
2007,10,26,00,52,0.70
2007,10,26,00,53,0.60
2007,10,26,00,54,0.60
2007,10,26,00,55,0.50
2007,10,26,00,56,0.50
2007,10,26,00,57,0.50
2007,10,26,00,58,0.50
2007,10,26,00,59,0.40
2007,10,26,01,00,0.40
2007,10,26,01,01,0.40
2007,10,26,01,02,0.40
2007,10,26,01,03,0.40
2007,10,26,01,04,0.40
2007,10,26,01,05,0.40
2007,10,26,01,06,0.40
2007,10,26,01,07,0.40
2007,10,26,01,08,0.40
2007,10,26,01,09,0.40
2007,10,26,01,10,0.40
2007,10,26,01,11,0.40
2007,10,26,01,12,0.40
2007,10,26,01,13,0.40
2007,10,26,01,14,0.50
2007,10,26,01,15,0.60
2007,10,26,01,16,0.60
2007,10,26,01,17,0.60
2007,10,26,01,18,0.60
2007,10,26,01,19,0.70
2007,10,26,01,20,0.70
2007,10,26,01,21,0.70
2007,10,26,01,22,0.80
2007,10,26,01,23,0.80
2007,10,26,01,24,0.80
2007,10,26,01,25,0.80
2007,10,26,01,26,0.80
2007,10,26,01,27,0.70
2007,10,26,01,28,0.70
2007,10,26,01,29,0.70
2007,10,26,01,30,0.70
2007,10,26,01,31,0.70
2007,10,26,01,32,0.70
2007,10,26,01,33,0.70
2007,10,26,01,34,0.70
2007,10,26,01,35,0.70
2007,10,26,01,36,0.70
2007,10,26,01,37,0.70
2007,10,26,01,38,0.70
2007,10,26,01,39,0.70
2007,10,26,01,40,0.80
2007,10,26,01,41,0.90
2007,10,26,01,42,0.90
2007,10,26,01,43,0.90
2007,10,26,01,44,1.00
2007,10,26,01,45,1.10
2007,10,26,01,46,1.10
2007,10,26,01,47,1.00
2007,10,26,01,48,0.90
2007,10,26,01,49,0.90
2007,10,26,01,50,0.80
2007,10,26,01,51,0.70
2007,10,26,01,52,0.60
2007,10,26,01,53,0.60
2007,10,26,01,54,0.50
2007,10,26,01,55,0.40
2007,10,26,01,56,0.40
2007,10,26,01,57,0.30
2007,10,26,01,58,0.30
2007,10,26,01,59,0.30
2007,10,26,02,00,0.20
2007,10,26,02,01,0.20
2007,10,26,02,02,0.20
2007,10,26,02,03,0.20
2007,10,26,02,04,0.30
2007,10,26,02,05,0.30
2007,10,26,02,06,0.30
2007,10,26,02,07,0.30
2007,10,26,02,08,0.30
2007,10,26,02,09,0.30
2007,10,26,02,10,0.30
2007,10,26,02,11,0.30
2007,10,26,02,12,0.30
2007,10,26,02,13,0.30
2007,10,26,02,14,0.30
2007,10,26,02,15,0.30
2007,10,26,02,16,0.30
2007,10,26,02,17,0.30
2007,10,26,02,18,0.30
2007,10,26,02,19,0.30
2007,10,26,02,20,0.30
2007,10,26,02,21,0.40
2007,10,26,02,22,0.50
2007,10,26,02,23,0.50
2007,10,26,02,24,0.50
2007,10,26,02,25,0.50
2007,10,26,02,26,0.50
2007,10,26,02,27,0.50
2007,10,26,02,28,0.50
2007,10,26,02,29,0.40
2007,10,26,02,30,0.40
2007,10,26,02,31,0.40
2007,10,26,02,32,0.30
2007,10,26,02,33,0.30
2007,10,26,02,34,0.30
2007,10,26,02,35,0.30
2007,10,26,02,36,0.20
2007,10,26,02,37,0.20
2007,10,26,02,38,0.10
2007,10,26,02,39,0.10
2007,10,26,02,40,0.10
2007,10,26,02,41,0.10
2007,10,26,02,42,0.10
2007,10,26,02,43,0.00
2007,10,26,02,44,0.00
2007,10,26,02,45,0.00
2007,10,26,02,46,0.00
2007,10,26,02,47,0.00
2007,10,26,02,48,0.00
2007,10,26,02,49,0.00
2007,10,26,02,50,0.10
2007,10,26,02,51,0.20
2007,10,26,02,52,0.20
2007,10,26,02,53,0.20
2007,10,26,02,54,0.30
2007,10,26,02,55,0.30
2007,10,26,02,56,0.30
2007,10,26,02,57,0.30
2007,10,26,02,58,0.30
2007,10,26,02,59,0.30
2007,10,26,03,00,0.30
2007,10,26,03,01,0.30
2007,10,26,03,02,0.30
2007,10,26,03,03,0.30
2007,10,26,03,04,0.30
2007,10,26,03,05,0.30
2007,10,26,03,06,0.30
2007,10,26,03,07,0.20
2007,10,26,03,08,0.10
2007,10,26,03,09,0.10
2007,10,26,03,10,0.10
2007,10,26,03,11,0.00
2007,10,26,03,12,0.00
2007,10,26,03,13,0.00
2007,10,26,03,14,0.00
2007,10,26,03,15,0.10
2007,10,26,03,16,0.10
2007,10,26,03,17,0.20
2007,10,26,03,18,0.30
2007,10,26,03,19,0.30
2007,10,26,03,20,0.30
2007,10,26,03,21,0.40
2007,10,26,03,22,0.40
2007,10,26,03,23,0.40
2007,10,26,03,24,0.50
2007,10,26,03,25,0.50
2007,10,26,03,26,0.50
2007,10,26,03,27,0.50
2007,10,26,03,28,0.40
2007,10,26,03,29,0.40
2007,10,26,03,30,0.30
2007,10,26,03,31,0.30
2007,10,26,03,32,0.20
2007,10,26,03,33,0.20
2007,10,26,03,34,0.20
2007,10,26,03,35,0.20
2007,10,26,03,36,0.10
2007,10,26,03,37,0.20
2007,10,26,03,38,0.20
2007,10,26,03,39,0.20
2007,10,26,03,40,0.20
2007,10,26,03,41,0.20
2007,10,26,03,42,0.20
2007,10,26,03,43,0.20
2007,10,26,03,44,0.20
2007,10,26,03,45,0.20
2007,10,26,03,46,0.20
2007,10,26,03,47,0.20
2007,10,26,03,48,0.20
2007,10,26,03,49,0.20
2007,10,26,03,50,0.10
2007,10,26,03,51,0.10
2007,10,26,03,52,0.10
2007,10,26,03,53,0.00
2007,10,26,03,54,0.00
2007,10,26,03,55,-0.10
2007,10,26,03,56,-0.10
2007,10,26,03,57,-0.10
2007,10,26,03,58,-0.10
2007,10,26,03,59,-0.20
2007,10,26,04,00,-0.30
2007,10,26,04,01,-0.30
2007,10,26,04,02,-0.30
2007,10,26,04,03,-0.40
2007,10,26,04,04,-0.40
2007,10,26,04,05,-0.50
2007,10,26,04,06,-0.50
2007,10,26,04,07,-0.60
2007,10,26,04,08,-0.60
2007,10,26,04,09,-0.60
2007,10,26,04,10,-0.70
2007,10,26,04,11,-0.70
2007,10,26,04,12,-0.70
2007,10,26,04,13,-0.70
2007,10,26,04,14,-0.60
2007,10,26,04,15,-0.60
2007,10,26,04,16,-0.60
2007,10,26,04,17,-0.50
2007,10,26,04,18,-0.50
2007,10,26,04,19,-0.50
2007,10,26,04,20,-0.40
2007,10,26,04,21,-0.40
2007,10,26,04,22,-0.40
2007,10,26,04,23,-0.40
2007,10,26,04,24,-0.40
2007,10,26,04,25,-0.30
2007,10,26,04,26,-0.30
2007,10,26,04,27,-0.20
2007,10,26,04,28,-0.20
2007,10,26,04,29,-0.20
2007,10,26,04,30,-0.10
2007,10,26,04,31,-0.10
2007,10,26,04,32,-0.10
2007,10,26,04,33,-0.10
2007,10,26,04,34,-0.10
2007,10,26,04,35,0.00
2007,10,26,04,36,-0.10
2007,10,26,04,37,0.00
2007,10,26,04,38,0.00
2007,10,26,04,39,0.00
2007,10,26,04,40,0.00
2007,10,26,04,41,0.10
2007,10,26,04,42,0.00
2007,10,26,04,43,0.00
2007,10,26,04,44,0.00
2007,10,26,04,45,0.00
2007,10,26,04,46,0.00
2007,10,26,04,47,0.00
2007,10,26,04,48,0.00
2007,10,26,04,49,0.10
2007,10,26,04,50,0.10
2007,10,26,04,51,0.10
2007,10,26,04,52,0.10
2007,10,26,04,53,0.00
2007,10,26,04,54,0.00
2007,10,26,04,55,-0.10
2007,10,26,04,56,-0.10
2007,10,26,04,57,-0.10
2007,10,26,04,58,-0.20
2007,10,26,04,59,-0.20
2007,10,26,05,00,-0.20
2007,10,26,05,01,-0.20
2007,10,26,05,02,-0.20
2007,10,26,05,03,-0.20
2007,10,26,05,04,-0.20
2007,10,26,05,05,-0.20
2007,10,26,05,06,-0.20
2007,10,26,05,07,-0.20
2007,10,26,05,08,-0.20
2007,10,26,05,09,-0.20
2007,10,26,05,10,-0.20
2007,10,26,05,11,-0.20
2007,10,26,05,12,-0.20
2007,10,26,05,13,-0.20
2007,10,26,05,14,-0.20
2007,10,26,05,15,-0.20
2007,10,26,05,16,-0.30
2007,10,26,05,17,-0.30
2007,10,26,05,18,-0.30
2007,10,26,05,19,-0.30
2007,10,26,05,20,-0.30
2007,10,26,05,21,-0.30
2007,10,26,05,22,-0.30
2007,10,26,05,23,-0.20
2007,10,26,05,24,-0.20
2007,10,26,05,25,-0.30
2007,10,26,05,26,-0.30
2007,10,26,05,27,-0.30
2007,10,26,05,28,-0.40
2007,10,26,05,29,-0.40
2007,10,26,05,30,-0.40
2007,10,26,05,31,-0.40
2007,10,26,05,32,-0.40
2007,10,26,05,33,-0.40
2007,10,26,05,34,-0.30
2007,10,26,05,35,-0.20
2007,10,26,05,36,-0.20
2007,10,26,05,37,-0.20
2007,10,26,05,38,-0.10
2007,10,26,05,39,0.00
2007,10,26,05,40,0.10
2007,10,26,05,41,0.40
2007,10,26,05,42,0.60
2007,10,26,05,43,0.80
2007,10,26,05,44,1.00
2007,10,26,05,45,1.30
2007,10,26,05,46,1.30
2007,10,26,05,47,1.40
2007,10,26,05,48,1.50
2007,10,26,05,49,1.60
2007,10,26,05,50,1.70
2007,10,26,05,51,1.70
2007,10,26,05,52,1.80
2007,10,26,05,53,1.80
2007,10,26,05,54,1.80
2007,10,26,05,55,1.90
2007,10,26,05,56,2.00
2007,10,26,05,57,2.10
2007,10,26,05,58,2.10
2007,10,26,05,59,2.20
2007,10,26,06,00,2.20
2007,10,26,06,01,2.20
2007,10,26,06,02,2.20
2007,10,26,06,03,2.20
2007,10,26,06,04,2.30
2007,10,26,06,05,2.40
2007,10,26,06,06,2.50
2007,10,26,06,07,2.60
2007,10,26,06,08,2.70
2007,10,26,06,09,2.80
2007,10,26,06,10,2.90
2007,10,26,06,11,2.90
2007,10,26,06,12,3.00
2007,10,26,06,13,3.10
2007,10,26,06,14,3.10
2007,10,26,06,15,3.20
2007,10,26,06,16,3.30
2007,10,26,06,17,3.30
2007,10,26,06,18,3.40
2007,10,26,06,19,3.40
2007,10,26,06,20,3.40
2007,10,26,06,21,3.40
2007,10,26,06,22,3.30
2007,10,26,06,23,3.30
2007,10,26,06,24,3.20
2007,10,26,06,25,3.20
2007,10,26,06,26,3.20
2007,10,26,06,27,3.20
2007,10,26,06,28,3.20
2007,10,26,06,29,3.20
2007,10,26,06,30,3.10
2007,10,26,06,31,3.10
2007,10,26,06,32,3.00
2007,10,26,06,33,2.90
2007,10,26,06,34,2.80
2007,10,26,06,35,2.70
2007,10,26,06,36,2.60
2007,10,26,06,37,2.40
2007,10,26,06,38,2.20
2007,10,26,06,39,2.00
2007,10,26,06,40,1.90
2007,10,26,06,41,1.80
2007,10,26,06,42,1.60
2007,10,26,06,43,1.50
2007,10,26,06,44,1.30
2007,10,26,06,45,1.30
2007,10,26,06,46,1.30
2007,10,26,06,47,1.20
2007,10,26,06,48,1.10
2007,10,26,06,49,1.10
2007,10,26,06,50,1.20
2007,10,26,06,51,1.20
2007,10,26,06,52,1.30
2007,10,26,06,53,1.30
2007,10,26,06,54,1.30
2007,10,26,06,55,1.30
2007,10,26,06,56,1.30
2007,10,26,06,57,1.30
2007,10,26,06,58,1.30
2007,10,26,06,59,1.30
2007,10,26,07,00,1.30
2007,10,26,07,01,1.20
2007,10,26,07,02,1.20
2007,10,26,07,03,1.10
2007,10,26,07,04,1.10
2007,10,26,07,05,1.00
2007,10,26,07,06,0.90
2007,10,26,07,07,0.90
2007,10,26,07,08,0.80
2007,10,26,07,09,0.80
2007,10,26,07,10,0.80
2007,10,26,07,11,0.70
2007,10,26,07,12,0.70
2007,10,26,07,13,0.70
2007,10,26,07,14,0.60
2007,10,26,07,15,0.60
2007,10,26,07,16,0.60
2007,10,26,07,17,0.60
2007,10,26,07,18,0.50
2007,10,26,07,19,0.50
2007,10,26,07,20,0.50
2007,10,26,07,21,0.40
2007,10,26,07,22,0.40
2007,10,26,07,23,0.40
2007,10,26,07,24,0.40
2007,10,26,07,25,0.40
2007,10,26,07,26,0.40
2007,10,26,07,27,0.40
2007,10,26,07,28,0.40
2007,10,26,07,29,0.40
2007,10,26,07,30,0.40
2007,10,26,07,31,0.40
2007,10,26,07,32,0.40
2007,10,26,07,33,0.50
2007,10,26,07,34,0.50
2007,10,26,07,35,0.60
2007,10,26,07,36,0.60
2007,10,26,07,37,0.70
2007,10,26,07,38,0.70
2007,10,26,07,39,0.80
2007,10,26,07,40,0.80
2007,10,26,07,41,1.00
2007,10,26,07,42,1.30
2007,10,26,07,43,1.30
2007,10,26,07,44,1.30
2007,10,26,07,45,1.40
2007,10,26,07,46,1.60
2007,10,26,07,47,1.70
2007,10,26,07,48,1.70
2007,10,26,07,49,1.80
2007,10,26,07,50,2.00
2007,10,26,07,51,2.10
2007,10,26,07,52,2.20
2007,10,26,07,53,2.40
2007,10,26,07,54,2.50
2007,10,26,07,55,2.60
2007,10,26,07,56,2.70
2007,10,26,07,57,2.80
2007,10,26,07,58,2.90
2007,10,26,07,59,3.10
2007,10,26,08,00,3.20
2007,10,26,08,01,3.30
2007,10,26,08,02,3.30
2007,10,26,08,03,3.30
2007,10,26,08,04,3.20
2007,10,26,08,05,3.20
2007,10,26,08,06,3.20
2007,10,26,08,07,3.20
2007,10,26,08,08,3.20
2007,10,26,08,09,3.20
2007,10,26,08,10,3.20
2007,10,26,08,11,3.20
2007,10,26,08,12,3.20
2007,10,26,08,13,3.20
2007,10,26,08,14,3.20
2007,10,26,08,15,3.20
2007,10,26,08,16,3.20
2007,10,26,08,17,3.30
2007,10,26,08,18,3.30
2007,10,26,08,19,3.40
2007,10,26,08,20,3.40
2007,10,26,08,21,3.50
2007,10,26,08,22,3.50
2007,10,26,08,23,3.60
2007,10,26,08,24,3.70
2007,10,26,08,25,3.70
2007,10,26,08,26,3.80
2007,10,26,08,27,4.00
2007,10,26,08,28,4.10
2007,10,26,08,29,4.20
2007,10,26,08,30,4.30
2007,10,26,08,31,4.40
2007,10,26,08,32,4.60
2007,10,26,08,33,4.70
2007,10,26,08,34,4.80
2007,10,26,08,35,4.80
2007,10,26,08,36,4.90
2007,10,26,08,37,5.00
2007,10,26,08,38,5.00
2007,10,26,08,39,5.00
2007,10,26,08,40,5.10
2007,10,26,08,41,5.10
2007,10,26,08,42,5.10
2007,10,26,08,43,5.10
2007,10,26,08,44,5.10
2007,10,26,08,45,5.10
2007,10,26,08,46,5.10
2007,10,26,08,47,5.10
2007,10,26,08,48,5.10
2007,10,26,08,49,5.10
2007,10,26,08,50,5.10
2007,10,26,08,51,5.10
2007,10,26,08,52,5.10
2007,10,26,08,53,5.10
2007,10,26,08,54,5.10
2007,10,26,08,55,5.20
2007,10,26,08,56,5.20
2007,10,26,08,57,5.30
2007,10,26,08,58,5.40
2007,10,26,08,59,5.50
2007,10,26,09,00,5.60
2007,10,26,09,01,5.60
2007,10,26,09,02,5.70
2007,10,26,09,03,5.80
2007,10,26,09,04,5.80
2007,10,26,09,05,5.80
2007,10,26,09,06,5.90
2007,10,26,09,07,5.90
2007,10,26,09,08,5.90
2007,10,26,09,09,6.00
2007,10,26,09,10,6.00
2007,10,26,09,11,6.10
2007,10,26,09,12,6.10
2007,10,26,09,13,6.10
2007,10,26,09,14,6.20
2007,10,26,09,15,6.20
2007,10,26,09,16,6.20
2007,10,26,09,17,6.20
2007,10,26,09,18,6.20
2007,10,26,09,19,6.30
2007,10,26,09,20,6.30
2007,10,26,09,21,6.30
2007,10,26,09,22,6.30
2007,10,26,09,23,6.30
2007,10,26,09,24,6.40
2007,10,26,09,25,6.40
2007,10,26,09,26,6.50
2007,10,26,09,27,6.60
2007,10,26,09,28,6.70
2007,10,26,09,29,6.80
2007,10,26,09,30,6.80
2007,10,26,09,31,7.00
2007,10,26,09,32,7.00
2007,10,26,09,33,7.10
2007,10,26,09,34,7.20
2007,10,26,09,35,7.20
2007,10,26,09,36,7.30
2007,10,26,09,37,7.40
2007,10,26,09,38,7.50
2007,10,26,09,39,7.50
2007,10,26,09,40,7.60
2007,10,26,09,41,7.60
2007,10,26,09,42,7.70
2007,10,26,09,43,7.70
2007,10,26,09,44,7.70
2007,10,26,09,45,7.70
2007,10,26,09,46,7.80
2007,10,26,09,47,7.80
2007,10,26,09,48,7.80
2007,10,26,09,49,7.80
2007,10,26,09,50,7.90
2007,10,26,09,51,7.90
2007,10,26,09,52,7.90
2007,10,26,09,53,8.00
2007,10,26,09,54,8.00
2007,10,26,09,55,8.10
2007,10,26,09,56,8.10
2007,10,26,09,57,8.20
2007,10,26,09,58,8.20
2007,10,26,09,59,8.20
2007,10,26,10,00,8.30
2007,10,26,10,01,8.30
2007,10,26,10,02,8.30
2007,10,26,10,03,8.30
2007,10,26,10,04,8.30
2007,10,26,10,05,8.40
2007,10,26,10,06,8.40
2007,10,26,10,07,8.40
2007,10,26,10,08,8.40
2007,10,26,10,09,8.40
2007,10,26,10,10,8.40
2007,10,26,10,11,8.40
2007,10,26,10,12,8.40
2007,10,26,10,13,8.40
2007,10,26,10,14,8.40
2007,10,26,10,15,8.50
2007,10,26,10,16,8.50
2007,10,26,10,17,8.50
2007,10,26,10,18,8.60
2007,10,26,10,19,8.70
2007,10,26,10,20,8.70
2007,10,26,10,21,8.70
2007,10,26,10,22,8.70
2007,10,26,10,23,8.70
2007,10,26,10,24,8.70
2007,10,26,10,25,8.60
2007,10,26,10,26,8.60
2007,10,26,10,27,8.70
2007,10,26,10,28,8.70
2007,10,26,10,29,8.70
2007,10,26,10,30,8.70
2007,10,26,10,31,8.60
2007,10,26,10,32,8.60
2007,10,26,10,33,8.60
2007,10,26,10,34,8.60
2007,10,26,10,35,8.60
2007,10,26,10,36,8.60
2007,10,26,10,37,8.60
2007,10,26,10,38,8.60
2007,10,26,10,39,8.60
2007,10,26,10,40,8.50
2007,10,26,10,41,8.50
2007,10,26,10,42,8.60
2007,10,26,10,43,8.60
2007,10,26,10,44,8.70
2007,10,26,10,45,8.70
2007,10,26,10,46,8.80
2007,10,26,10,47,8.80
2007,10,26,10,48,8.90
2007,10,26,10,49,8.90
2007,10,26,10,50,8.90
2007,10,26,10,51,8.90
2007,10,26,10,52,9.00
2007,10,26,10,53,9.00
2007,10,26,10,54,9.00
2007,10,26,10,55,9.00
2007,10,26,10,56,9.00
2007,10,26,10,57,9.00
2007,10,26,10,58,9.00
2007,10,26,10,59,8.90
2007,10,26,11,00,8.90
2007,10,26,11,01,8.90
2007,10,26,11,02,8.90
2007,10,26,11,03,8.80
2007,10,26,11,04,8.80
2007,10,26,11,05,8.80
2007,10,26,11,06,8.80
2007,10,26,11,07,8.80
2007,10,26,11,08,8.80
2007,10,26,11,09,8.80
2007,10,26,11,10,8.80
2007,10,26,11,11,8.90
2007,10,26,11,12,8.90
2007,10,26,11,13,8.90
2007,10,26,11,14,8.90
2007,10,26,11,15,8.90
2007,10,26,11,16,8.90
2007,10,26,11,17,8.90
2007,10,26,11,18,9.00
2007,10,26,11,19,9.00
2007,10,26,11,20,9.10
2007,10,26,11,21,9.10
2007,10,26,11,22,9.10
2007,10,26,11,23,9.10
2007,10,26,11,24,9.00
2007,10,26,11,25,8.90
2007,10,26,11,26,8.90
2007,10,26,11,27,9.00
2007,10,26,11,28,9.00
2007,10,26,11,29,9.10
2007,10,26,11,30,9.10
2007,10,26,11,31,9.20
2007,10,26,11,32,9.10
2007,10,26,11,33,9.00
2007,10,26,11,34,9.00
2007,10,26,11,35,8.90
2007,10,26,11,36,8.80
2007,10,26,11,37,8.80
2007,10,26,11,38,8.80
2007,10,26,11,39,8.80
2007,10,26,11,40,8.80
2007,10,26,11,41,8.90
2007,10,26,11,42,8.90
2007,10,26,11,43,9.00
2007,10,26,11,44,9.00
2007,10,26,11,45,9.10
2007,10,26,11,46,9.10
2007,10,26,11,47,9.20
2007,10,26,11,48,9.20
2007,10,26,11,49,9.30
2007,10,26,11,50,9.30
2007,10,26,11,51,9.30
2007,10,26,11,52,9.30
2007,10,26,11,53,9.30
2007,10,26,11,54,9.30
2007,10,26,11,55,9.30
2007,10,26,11,56,9.20
2007,10,26,11,57,9.20
2007,10,26,11,58,9.20
2007,10,26,11,59,9.20
2007,10,26,12,00,9.20
2007,10,26,12,01,9.20
2007,10,26,12,02,9.20
2007,10,26,12,03,9.30
2007,10,26,12,04,9.40
2007,10,26,12,05,9.40
2007,10,26,12,06,9.40
2007,10,26,12,07,9.50
2007,10,26,12,08,9.50
2007,10,26,12,09,9.60
2007,10,26,12,10,9.60
2007,10,26,12,11,9.60
2007,10,26,12,12,9.60
2007,10,26,12,13,9.70
2007,10,26,12,14,9.70
2007,10,26,12,15,9.70
2007,10,26,12,16,9.80
2007,10,26,12,17,9.80
2007,10,26,12,18,9.80
2007,10,26,12,19,9.80
2007,10,26,12,20,9.80
2007,10,26,12,21,9.70
2007,10,26,12,22,9.70
2007,10,26,12,23,9.60
2007,10,26,12,24,9.60
2007,10,26,12,25,9.60
2007,10,26,12,26,9.60
2007,10,26,12,27,9.70
2007,10,26,12,28,9.60
2007,10,26,12,29,9.60
2007,10,26,12,30,9.60
2007,10,26,12,31,9.60
2007,10,26,12,32,9.60
2007,10,26,12,33,9.70
2007,10,26,12,34,9.70
2007,10,26,12,35,9.70
2007,10,26,12,36,9.70
2007,10,26,12,37,9.70
2007,10,26,12,38,9.70
2007,10,26,12,39,9.70
2007,10,26,12,40,9.70
2007,10,26,12,41,9.60
2007,10,26,12,42,9.60
2007,10,26,12,43,9.60
2007,10,26,12,44,9.70
2007,10,26,12,45,9.70
2007,10,26,12,46,9.70
2007,10,26,12,47,9.70
2007,10,26,12,48,9.70
2007,10,26,12,49,9.70
2007,10,26,12,50,9.70
2007,10,26,12,51,9.70
2007,10,26,12,52,9.70
2007,10,26,12,53,9.70
2007,10,26,12,54,9.70
2007,10,26,12,55,9.80
2007,10,26,12,56,9.90
2007,10,26,12,57,9.90
2007,10,26,12,58,10.00
2007,10,26,12,59,10.00
2007,10,26,13,00,10.10
2007,10,26,13,01,10.10
2007,10,26,13,02,10.10
2007,10,26,13,03,10.00
2007,10,26,13,04,9.90
2007,10,26,13,05,9.90
2007,10,26,13,06,9.90
2007,10,26,13,07,9.90
2007,10,26,13,08,9.90
2007,10,26,13,09,9.90
2007,10,26,13,10,9.90
2007,10,26,13,11,10.00
2007,10,26,13,12,10.00
2007,10,26,13,13,10.00
2007,10,26,13,14,10.00
2007,10,26,13,15,10.00
2007,10,26,13,16,9.90
2007,10,26,13,17,9.90
2007,10,26,13,18,9.90
2007,10,26,13,19,9.80
2007,10,26,13,20,9.90
2007,10,26,13,21,9.90
2007,10,26,13,22,9.90
2007,10,26,13,23,9.90
2007,10,26,13,24,9.90
2007,10,26,13,25,9.90
2007,10,26,13,26,10.00
2007,10,26,13,27,10.00
2007,10,26,13,28,10.10
2007,10,26,13,29,10.10
2007,10,26,13,30,10.20
2007,10,26,13,31,10.20
2007,10,26,13,32,10.20
2007,10,26,13,33,10.20
2007,10,26,13,34,10.30
2007,10,26,13,35,10.30
2007,10,26,13,36,10.30
2007,10,26,13,37,10.30
2007,10,26,13,38,10.30
2007,10,26,13,39,10.30
2007,10,26,13,40,10.20
2007,10,26,13,41,10.20
2007,10,26,13,42,10.10
2007,10,26,13,43,10.20
2007,10,26,13,44,10.20
2007,10,26,13,45,10.20
2007,10,26,13,46,10.20
2007,10,26,13,47,10.20
2007,10,26,13,48,10.30
2007,10,26,13,49,10.30
2007,10,26,13,50,10.30
2007,10,26,13,51,10.40
2007,10,26,13,52,10.30
2007,10,26,13,53,10.30
2007,10,26,13,54,10.40
2007,10,26,13,55,10.50
2007,10,26,13,56,10.50
2007,10,26,13,57,10.50
2007,10,26,13,58,10.60
2007,10,26,13,59,10.60
2007,10,26,14,00,10.60
2007,10,26,14,01,10.60
2007,10,26,14,02,10.60
2007,10,26,14,03,10.70
2007,10,26,14,04,10.70
2007,10,26,14,05,10.70
2007,10,26,14,06,10.70
2007,10,26,14,07,10.70
2007,10,26,14,08,10.60
2007,10,26,14,09,10.60
2007,10,26,14,10,10.60
2007,10,26,14,11,10.60
2007,10,26,14,12,10.60
2007,10,26,14,13,10.60
2007,10,26,14,14,10.60
2007,10,26,14,15,10.60
2007,10,26,14,16,10.60
2007,10,26,14,17,10.60
2007,10,26,14,18,10.60
2007,10,26,14,19,10.60
2007,10,26,14,20,10.60
2007,10,26,14,21,10.60
2007,10,26,14,22,10.70
2007,10,26,14,23,10.70
2007,10,26,14,24,10.70
2007,10,26,14,25,10.70
2007,10,26,14,26,10.60
2007,10,26,14,27,10.60
2007,10,26,14,28,10.60
2007,10,26,14,29,10.70
2007,10,26,14,30,10.70
2007,10,26,14,31,10.70
2007,10,26,14,32,10.60
2007,10,26,14,33,10.60
2007,10,26,14,34,10.60
2007,10,26,14,35,10.60
2007,10,26,14,36,10.60
2007,10,26,14,37,10.60
2007,10,26,14,38,10.60
2007,10,26,14,39,10.50
2007,10,26,14,40,10.50
2007,10,26,14,41,10.40
2007,10,26,14,42,10.40
2007,10,26,14,43,10.40
2007,10,26,14,44,10.40
2007,10,26,14,45,10.40
2007,10,26,14,46,10.30
2007,10,26,14,47,10.40
2007,10,26,14,48,10.40
2007,10,26,14,49,10.40
2007,10,26,14,50,10.50
2007,10,26,14,51,10.60
2007,10,26,14,52,10.60
2007,10,26,14,53,10.50
2007,10,26,14,54,10.50
2007,10,26,14,55,10.50
2007,10,26,14,56,10.50
2007,10,26,14,57,10.50
2007,10,26,14,58,10.50
2007,10,26,14,59,10.50
2007,10,26,15,00,10.50
2007,10,26,15,01,10.50
2007,10,26,15,02,10.50
2007,10,26,15,03,10.50
2007,10,26,15,04,10.40
2007,10,26,15,05,10.40
2007,10,26,15,06,10.40
2007,10,26,15,07,10.40
2007,10,26,15,08,10.40
2007,10,26,15,09,10.40
2007,10,26,15,10,10.30
2007,10,26,15,11,10.30
2007,10,26,15,12,10.30
2007,10,26,15,13,10.30
2007,10,26,15,14,10.30
2007,10,26,15,15,10.30
2007,10,26,15,16,10.40
2007,10,26,15,17,10.40
2007,10,26,15,18,10.50
2007,10,26,15,19,10.50
2007,10,26,15,20,10.50
2007,10,26,15,21,10.60
2007,10,26,15,22,10.60
2007,10,26,15,23,10.70
2007,10,26,15,24,10.80
2007,10,26,15,25,10.80
2007,10,26,15,26,10.80
2007,10,26,15,27,10.70
2007,10,26,15,28,10.70
2007,10,26,15,29,10.80
2007,10,26,15,30,10.80
2007,10,26,15,31,10.70
2007,10,26,15,32,10.70
2007,10,26,15,33,10.60
2007,10,26,15,34,10.60
2007,10,26,15,35,10.50
2007,10,26,15,36,10.50
2007,10,26,15,37,10.50
2007,10,26,15,38,10.50
2007,10,26,15,39,10.50
2007,10,26,15,40,10.60
2007,10,26,15,41,10.60
2007,10,26,15,42,10.60
2007,10,26,15,43,10.60
2007,10,26,15,44,10.60
2007,10,26,15,45,10.60
2007,10,26,15,46,10.60
2007,10,26,15,47,10.60
2007,10,26,15,48,10.50
2007,10,26,15,49,10.50
2007,10,26,15,50,10.50
2007,10,26,15,51,10.50
2007,10,26,15,52,10.60
2007,10,26,15,53,10.60
2007,10,26,15,54,10.60
2007,10,26,15,55,10.60
2007,10,26,15,56,10.50
2007,10,26,15,57,10.40
2007,10,26,15,58,10.40
2007,10,26,15,59,10.40
2007,10,26,16,00,10.40
2007,10,26,16,01,10.50
2007,10,26,16,02,10.50
2007,10,26,16,03,10.50
2007,10,26,16,04,10.40
2007,10,26,16,05,10.40
2007,10,26,16,06,10.40
2007,10,26,16,07,10.50
2007,10,26,16,08,10.50
2007,10,26,16,09,10.50
2007,10,26,16,10,10.50
2007,10,26,16,11,10.40
2007,10,26,16,12,10.40
2007,10,26,16,13,10.40
2007,10,26,16,14,10.40
2007,10,26,16,15,10.40
2007,10,26,16,16,10.40
2007,10,26,16,17,10.50
2007,10,26,16,18,10.50
2007,10,26,16,19,10.50
2007,10,26,16,20,10.60
2007,10,26,16,21,10.60
2007,10,26,16,22,10.60
2007,10,26,16,23,10.60
2007,10,26,16,24,10.50
2007,10,26,16,25,10.50
2007,10,26,16,26,10.50
2007,10,26,16,27,10.50
2007,10,26,16,28,10.50
2007,10,26,16,29,10.50
2007,10,26,16,30,10.50
2007,10,26,16,31,10.50
2007,10,26,16,32,10.50
2007,10,26,16,33,10.50
2007,10,26,16,34,10.40
2007,10,26,16,35,10.50
2007,10,26,16,36,10.50
2007,10,26,16,37,10.50
2007,10,26,16,38,10.40
2007,10,26,16,39,10.40
2007,10,26,16,40,10.40
2007,10,26,16,41,10.40
2007,10,26,16,42,10.40
2007,10,26,16,43,10.30
2007,10,26,16,44,10.30
2007,10,26,16,45,10.30
2007,10,26,16,46,10.30
2007,10,26,16,47,10.30
2007,10,26,16,48,10.30
2007,10,26,16,49,10.30
2007,10,26,16,50,10.30
2007,10,26,16,51,10.30
2007,10,26,16,52,10.30
2007,10,26,16,53,10.30
2007,10,26,16,54,10.30
2007,10,26,16,55,10.30
2007,10,26,16,56,10.30
2007,10,26,16,57,10.30
2007,10,26,16,58,10.30
2007,10,26,16,59,10.30
2007,10,26,17,00,10.30
2007,10,26,17,01,10.30
2007,10,26,17,02,10.30
2007,10,26,17,03,10.30
2007,10,26,17,04,10.20
2007,10,26,17,05,10.20
2007,10,26,17,06,10.20
2007,10,26,17,07,10.10
2007,10,26,17,08,10.10
2007,10,26,17,09,10.00
2007,10,26,17,10,10.00
2007,10,26,17,11,10.00
2007,10,26,17,12,9.90
2007,10,26,17,13,9.90
2007,10,26,17,14,9.90
2007,10,26,17,15,9.90
2007,10,26,17,16,9.80
2007,10,26,17,17,9.80
2007,10,26,17,18,9.80
2007,10,26,17,19,9.80
2007,10,26,17,20,9.80
2007,10,26,17,21,9.70
2007,10,26,17,22,9.70
2007,10,26,17,23,9.70
2007,10,26,17,24,9.70
2007,10,26,17,25,9.70
2007,10,26,17,26,9.70
2007,10,26,17,27,9.70
2007,10,26,17,28,9.70
2007,10,26,17,29,9.70
2007,10,26,17,30,9.70
2007,10,26,17,31,9.70
2007,10,26,17,32,9.70
2007,10,26,17,33,9.70
2007,10,26,17,34,9.70
2007,10,26,17,35,9.60
2007,10,26,17,36,9.60
2007,10,26,17,37,9.60
2007,10,26,17,38,9.70
2007,10,26,17,39,9.70
2007,10,26,17,40,9.60
2007,10,26,17,41,9.60
2007,10,26,17,42,9.60
2007,10,26,17,43,9.60
2007,10,26,17,44,9.60
2007,10,26,17,45,9.60
2007,10,26,17,46,9.60
2007,10,26,17,47,9.60
2007,10,26,17,48,9.60
2007,10,26,17,49,9.60
2007,10,26,17,50,9.50
2007,10,26,17,51,9.50
2007,10,26,17,52,9.50